DELTA 1 DEB, 7838

Orbit data source: Space-Track

DELTA 1 DEB, 7838 is space debris in SSO originally from a launch on Sun, 23 Jul 1972 UTC launched from the Air Force Western Test Range (AFWTR). Debris objects in space refer to the collection of defunct objects orbiting the Earth. Examples of debris include non-operational satellites, rocket bodies, and fragments generated from explosions, collisions, or faulty payload assembly.

Loading next visibility...
Identifier
7838, 1972-058J
Orbit
SSO
Country
Flag of USUS
Related business
Manufacturer
Unknown
Mission
Spacecraft
Bus & Motor
Unknown
Mass
Unknown
Launch date (UTC)
1972-07-23 (53 years ago)
Launch vehicle
Unknown
Launch site
Air Force Western Test Range (AFWTR)
Object type
Payload
Rocket body
Debris
Shape & HBR
Unknown shape, 0.2 m
Radar Cross Section
Medium (>0.1 m² and <1 m²)

Expand to show TLE details & history
Last TLE update: 16 hours ago

TLE from 16 hours ago
0 DELTA 1 DEB
1 07838U 72058J   25293.86150382  .00002284  00000-0  10103-2 0  9995
2 07838  98.1175  51.4950 0305065  91.8051 271.8080 14.02027153536483
Epoch: 2025-10-20T20:40Z
TLE epoch observation values (Epoch: 2025-10-20T20:40:33.930Z)
Latitude
0.00003°
Longitude
71.79588°
Altitude
889.463 km
Speed
7.408 km/s
True Right ascension
03h 25m 58s
True Declination
0° 00' 00"
Sunlit
Object was in full shadow at epoch
Visualization orbit readout
Latitude
Unknown
Longitude
Unknown
Altitude
Unknown
Speed
Unknown
Apparent Right ascension
Unknown
Apparent Declination
Unknown
Sunlit
N/A
Visualization observer readout
Local Sidereal Time
07:58:27
Azimuth
Unknown
Elevation
Unknown
Doppler factor
Unknown
Orbital elements
Apogee altitude
1,105.476 km
Perigee altitude
662.395 km
Semi-major axis
7,262.072 km
Eccentricity
0.03051
Inclination
98.1175°
RAAN
51.495°
Arg. of periapsis
91.8051°
True anomaly
268.31192°
Mean anomaly
271.808°
Eccentric anomaly
270.06011°
Mean motion
3.50713 °/min
Orbital period
102.65 mins
BSTAR
0.0010103
Loading maneuver chart data...
Computing Atmospheric mass density...

Documentation

Showing up to 5 results
|